Вернуться в каталог

QIANFAN-31

АктивенСвязьPO
NORAD 61564·PAYLOAD·🇨🇳 China

Запущен Oct 15, 2024 с Taiyuan Satellite Launch Center

Loading…

Ближайшие Пролёты (ближайшие 24 часа)

TLE

СвежийSource: Space-Track

Эпоха: Sep 14, 2026, 13:01 UTC

1 61564U 24185N   26257.54293555  .00000142  00000-0  17965-3 0  9990
2 61564  88.9799  51.7961 0005530 313.7975  46.2722 13.58063019105590

Отслеживайте QIANFAN-31 в реальном времени с AllMySat

Download on the App Store